Regional Weather Roundup
Issued by NWS

Home | Current Version | Previous Version | Graphics & Text | Print | Product List | Glossary On
Versions: 1 2 3 4 5 6 7 8 9 10 11 12 13 14 15 16 17 18 19 20 21 22 23 24 25 26 27 28 29 30 31 32 33 34 35 36 37 38 39 40 41 42 43 44 45 46 47 48 49 50
000
ASUS45 KPSR 220610
RWRAZ

ARIZONA HOURLY REGIONAL WEATHER ROUNDUP
NATIONAL WEATHER SERVICE PHOENIX AZ
1100 PM MST THU SEP 21 2017

NOTE: FAIR INDICATES FEW OR NO CLOUDS BELOW 12,000 FEET WITH NO
SIGNIFICANT WEATHER AND/OR OBSTRUCTIONS TO VISIBILITY.

AZZ001>003-036-220700-
NORTHWEST ARIZONA

CITY           SKY/WX    TMP DP  RH WIND       PRES   REMARKS
BULLHEAD CITY  CLEAR     77  37  24 W9        29.66R
KINGMAN        CLEAR     65  43  44 SW14      29.77R
6HR MIN TEMP:  65; 6HR MAX TEMP:  79;

$$

AZZ004>008-015-016-018-220700-
NORTH CENTRAL ARIZONA

CITY           SKY/WX    TMP DP  RH WIND       PRES   REMARKS
GRAND CANYON   PTCLDY    55  36  48 SW14      29.90R
6HR MIN TEMP:  55; 6HR MAX TEMP:  68;

WILLIAMS       CLEAR     55  36  47 SW20G29   29.91F
PRESCOTT       CLEAR     61  38  42 S7        29.88S
6HR MIN TEMP:  61; 6HR MAX TEMP:  74;

FLAGSTAFF      CLEAR     55  35  47 SW17G26   29.94F
6HR MIN TEMP:  55; 6HR MAX TEMP:  64;

PAYSON           N/A     66  28  24 SW12      29.92S
PAGE           CLEAR     71  38  29 S12G23    29.70F
6HR MIN TEMP:  71; 6HR MAX TEMP:  83;

$$

AZZ009>014-017-220700-
NORTHEAST ARIZONA

CITY           SKY/WX    TMP DP  RH WIND       PRES   REMARKS
WINSLOW        CLEAR     65  36  34 S12       29.87R
6HR MIN TEMP:  62; 6HR MAX TEMP:  80;

SAINT JOHNS    CLEAR     66  38  35 SW10      29.93R
6HR MIN TEMP:  64; 6HR MAX TEMP:  79;

WINDOW ROCK    PTCLDY    59  33  37 S5        29.98S
6HR MIN TEMP:  57; 6HR MAX TEMP:  75;

SHOW LOW       CLEAR     63  36  36 S13       29.97S
$$

AZZ540-542>544-546-548-220700-
GREATER PHOENIX AREA

CITY           SKY/WX    TMP DP  RH WIND       PRES   REMARKS
PHOENIX        PTCLDY    84  34  16 SW17      29.67R
6HR MIN TEMP:  84; 6HR MAX TEMP:  96;

BUCKEYE          N/A     77  45  31 S14       29.69S
LUKE AFB       CLEAR     80  41  25 SW15      29.67S
6HR MIN TEMP:  80; 6HR MAX TEMP:  94; 6HR PCP: TRACE;

DEER VALLEY    CLEAR     79  35  20 SW9       29.70R
6HR MIN TEMP:  79; 6HR MAX TEMP:  93;

SCOTTSDALE     CLEAR     82  30  15 SW9       29.71R
6HR MIN TEMP:  82; 6HR MAX TEMP:  95;

MESA-GATEWAY   PTCLDY    75  34  22 VRB6      29.72R
$$

AZZ539-553-220700-
SOUTHWEST MARICOPA COUNTY AND PINAL COUNTY

CITY           SKY/WX    TMP DP  RH WIND       PRES   REMARKS
CASA GRANDE    NOT AVBL
GILA BEND      FAIR      79  43  28 SW9       29.69R
6HR MIN TEMP:  79; 6HR MAX TEMP:  94;

$$

AZZ503-504-507>509-220700-
SOUTHEAST ARIZONA

CITY           SKY/WX    TMP DP  RH WIND       PRES   REMARKS
TUCSON         CLEAR     78  48  34 CALM      29.82S
6HR MIN TEMP:  78; 6HR MAX TEMP:  94;

DAVIS-MONTHAN  CLEAR     75  49  38 SW6       29.81R
6HR MIN TEMP:  75; 6HR MAX TEMP:  93;

NOGALES        CLEAR     71  44  37 SE7       29.92R
6HR MIN TEMP:  71; 6HR MAX TEMP:  87;

SIERRA VISTA   CLEAR     71  44  39 S7        29.96F
6HR MIN TEMP:  70; 6HR MAX TEMP:  84;

DOUGLAS        CLEAR     69  43  38 S5        29.94R
6HR MIN TEMP:  69; 6HR MAX TEMP:  88;

SAFFORD        CLEAR     77  38  24 NW3       29.79S
6HR MIN TEMP:  74; 6HR MAX TEMP:  93;

$$

AZZ532-220700-
SOUTHWEST ARIZONA

CITY           SKY/WX    TMP DP  RH WIND       PRES   REMARKS
YUMA           CLEAR     72  51  47 NW10      29.71R
6HR MIN TEMP:  72; 6HR MAX TEMP:  90;

$$

CAZ041-043-047-048-061-525>527-560>570-220700-
SOUTHERN CALIFORNIA

CITY           SKY/WX    TMP DP  RH WIND       PRES   REMARKS
DOWNTOWN L.A.  CLEAR     65  54  67 E5        29.83S
6HR MIN TEMP:  65; 6HR MAX TEMP:  71;

L.A. AIRPORT   PTCLDY    63  55  75 E8        29.83R
6HR MIN TEMP:  63; 6HR MAX TEMP:  68;

SAN DIEGO      MOCLDY    66  53  63 SW6       29.88F
6HR MIN TEMP:  65; 6HR MAX TEMP:  72;

BURBANK        CLEAR     62  52  69 SE3       29.84S
6HR MIN TEMP:  62; 6HR MAX TEMP:  69;

ONTARIO        PTCLDY    58  49  72 W3        29.86R
6HR MIN TEMP:  58; 6HR MAX TEMP:  70;

RIVERSIDE      MOCLDY    60  49  66 CALM      29.86R
6HR MIN TEMP:  60; 6HR MAX TEMP:  72;

PALM SPRINGS   CLEAR     73  43  33 NW21G28   29.72S
6HR MIN TEMP:  73; 6HR MAX TEMP:  85;

EL CENTRO NAS  CLEAR     70  43  37 W24G31    29.74R
6HR MIN TEMP:  70; 6HR MAX TEMP:  83;

IMPERIAL       CLEAR     70  46  42 W20G33    29.70R
6HR MIN TEMP:  69; 6HR MAX TEMP:  83;

BLYTHE         CLEAR     73  54  51 SW12      29.68R
6HR MIN TEMP:  73; 6HR MAX TEMP:  88;

NEEDLES        CLEAR     76  40  27 NW17G25   29.67R
6HR MIN TEMP:  76; 6HR MAX TEMP:  94;

$$

NVZ020-UTZ003-220700-
SOUTHERN NEVADA-UTAH

CITY           SKY/WX    TMP DP  RH WIND       PRES   REMARKS
LAS VEGAS      PTCLDY    66  25  21 SW9       29.71R
6HR MIN TEMP:  66; 6HR MAX TEMP:  77;

SALT LAKE CITY LGT RAIN  41  39  93 S9        29.85F
6HR MIN TEMP:  41; 6HR MAX TEMP:  51; 6HR PCP:  0.51;

$$

NMZ009-TXZ055-220700-
NEW MEXICO-WEST TEXAS

CITY           SKY/WX    TMP DP  RH WIND       PRES   REMARKS
ALBUQUERQUE    PTCLDY    69  39  33 SE12      29.94S
6HR MIN TEMP:  69; 6HR MAX TEMP:  85;

EL PASO        PTCLDY    81  43  26 SW9       29.91R
6HR MIN TEMP:  81; 6HR MAX TEMP:  91;

$$


........................KEY........................
SKY/WX - SKY CONDITION/WEATHER
TMP    - TEMPERATURE IN FAHRENHEIT
DP     - DEW POINT IN FAHRENHEIT
RH     - RELATIVE HUMIDITY IN PERCENT
WIND   - DIRECTION AND SPEED IN MILES PER HOUR (MPH)
VRB    - VARIABLE WIND DIRECTION
PRES   - MEAN SEA LEVEL PRESSURE IN INCHES OF MERCURY
         F - FALLING PRESSURE   R - RISING PRESSURE
         S - STEADY PRESSURE
VSB    - VISIBILITY IN MILES
HX     - HEAT INDEX IN FAHRENHEIT
WCI    - WIND CHILL INDEX IN FAHRENHEIT
TC     - TEMPERATURE IN CELSIUS WHICH IS ALSO KNOWN AS
         TEMPERATURE IN CENTIGRADE
AFB    - AIR FORCE BASE
         LUKE AFB IS LUKE AIR FORCE BASE
         DAVIS-MONTHAN IS DAVIS-MONTHAN AIR FORCE BASE
NAS    - NAVAL AIR STATION
         EL CENTRO NAS IS EL CENTRO NAVAL AIR STATION
N/A    - NOT AVAILABLE




USA.gov is the U.S. government's official web portal to all federal, state and local government web resources and services.